, FL

(GMT )
Crestview

Weather History for KEGI - February, 2014

Change the Weather History Date:

Tuesday, February 4, 2014

  Actual Average Record
Temperature  
Mean Temperature 58 °F -  
Max Temperature 68 °F - - ()
Min Temperature 48 °F - - ()
Degree Days  
Heating Degree Days 7    
Growing Degree Days 8 (Base 50)    
Moisture  
Dew Point 57 °F    
Average Humidity 99    
Maximum Humidity 100    
Minimum Humidity 86    
Precipitation  
Precipitation 0.01 in - - ()
Sea Level Pressure  
Sea Level Pressure 30.03 in    
Wind  
Wind Speed 7 mph (ESE)    
Max Wind Speed 16 mph    
Max Gust Speed 22 mph    
Visibility 4 miles    
Events Fog , Rain    
Averages and records for this station are not official NWS values.
T = Trace of Precipitation, MM = Missing Value Source: NWS Daily Summary

Daily Weather History Graph

Daily Weather History Graph

Search for Another Location

Airport or City:

Trip Planner

Search our weather history database for the weather conditions in past years. The results will help you decide how hot, cold, wet, or windy it might be!

Date:

Astronomy

Feb. 04, 2014 Rise Set
Actual Time 6:35 AM CST 5:24 PM CST
Civil Twilight 6:10 AM CST 5:50 PM CST
Nautical Twilight 5:41 AM CST 6:18 PM CST
Astronomical Twilight 5:13 AM CST 6:47 PM CST
Moon 9:38 AM CST (2/4) 10:50 PM CST (2/4)
Length of Visible Light 11h 39m
Length of Day
10h 49m
Waxing Crescent, 29% of the Moon is Illuminated
Feb 4
Waxing Crescent
Feb 6
First Quarter
Feb 14
Full
Feb 22
Last Quarter
Mar 1
New

Hourly Weather History & Observations

Time (CST) Temp. Dew Point Humidity Pressure Visibility Wind Dir Wind Speed Gust Speed Precip Events Conditions
12:58 AM 49.5 °F 49.3 °F 99% 30.10 in 10.0 mi NNE 6.9 mph - N/A   Overcast
1:48 AM 50.0 °F 48.2 °F 94% 30.08 in 10.0 mi NNE 6.9 mph - N/A   Overcast
1:58 AM 49.1 °F 48.9 °F 99% 30.09 in 10.0 mi NNE 5.8 mph - N/A   Overcast
2:13 AM 50.0 °F 48.2 °F 94% 30.08 in 10.0 mi NNE 4.6 mph - N/A   Overcast
2:18 AM 50.0 °F 48.2 °F 94% 30.07 in 10.0 mi NNE 4.6 mph - N/A   Overcast
2:28 AM 50.0 °F 48.2 °F 94% 30.07 in 10.0 mi NNE 3.5 mph - N/A   Overcast
2:38 AM 48.2 °F 48.2 °F 100% 30.07 in 9.0 mi NNE 3.5 mph - N/A   Overcast
2:58 AM 48.9 °F 48.6 °F 99% 30.08 in 8.0 mi NNE 5.8 mph - N/A   Overcast
3:02 AM 48.2 °F 48.2 °F 100% 30.07 in 8.0 mi NNE 4.6 mph - N/A   Overcast
3:58 AM 48.7 °F 48.7 °F 100% 30.08 in 7.0 mi North 5.8 mph - N/A   Overcast
4:08 AM 48.2 °F 48.2 °F 100% 30.07 in 7.0 mi NNE 3.5 mph - N/A   Overcast
4:58 AM 48.7 °F 48.7 °F 100% 30.09 in 4.0 mi NNE 4.6 mph - N/A   Overcast
5:08 AM 48.2 °F 48.2 °F 100% 30.07 in 2.5 mi NE 4.6 mph - N/A   Overcast
5:13 AM 48.2 °F 48.2 °F 100% 30.08 in 2.0 mi NE 3.5 mph - N/A   Overcast
5:23 AM 48.2 °F 48.2 °F 100% 30.08 in 1.8 mi NNE 5.8 mph - N/A   Overcast
5:38 AM 48.2 °F 48.2 °F 100% 30.08 in 1.2 mi NE 3.5 mph - N/A   Overcast
5:58 AM 48.2 °F 48.2 °F 100% 30.10 in 1.2 mi NE 3.5 mph - N/A   Overcast
6:18 AM 50.0 °F 50.0 °F 100% 30.09 in 1.5 mi NE 3.5 mph - N/A   Overcast
6:28 AM 50.0 °F 50.0 °F 100% 30.09 in 2.0 mi NE 4.6 mph - N/A   Overcast
6:33 AM 50.0 °F 50.0 °F 100% 30.09 in 1.8 mi NE 3.5 mph - N/A   Overcast
6:43 AM 50.0 °F 50.0 °F 100% 30.09 in 2.0 mi NE 4.6 mph - N/A   Overcast
6:48 AM 50.0 °F 50.0 °F 100% 30.09 in 1.8 mi NE 4.6 mph - N/A   Overcast
6:58 AM 49.8 °F 49.8 °F 100% 30.10 in 1.5 mi NE 3.5 mph - N/A   Overcast
7:08 AM 50.0 °F 50.0 °F 100% 30.09 in 1.2 mi NE 2.3 mph - N/A   Overcast
7:13 AM 50.0 °F 50.0 °F 100% 30.09 in 1.0 mi NE 3.5 mph - N/A   Mist
7:18 AM 50.0 °F 50.0 °F 100% 30.09 in 1.0 mi ENE 4.6 mph - N/A   Mist
7:23 AM 50.0 °F 50.0 °F 100% 30.09 in 0.8 mi NNE 1.2 mph - N/A   Mist
7:48 AM 50.0 °F 50.0 °F 100% 30.09 in 0.5 mi ENE 3.5 mph - N/A Fog Fog
7:58 AM 51.8 °F 51.8 °F 100% 30.10 in 0.8 mi ENE 2.3 mph - N/A   Mist
8:08 AM 51.8 °F 51.8 °F 100% 30.09 in 1.0 mi Variable 3.5 mph - N/A   Mist
8:28 AM 51.8 °F 51.8 °F 100% 30.09 in 1.2 mi ENE 4.6 mph - N/A   Overcast
8:33 AM 51.8 °F 51.8 °F 100% 30.09 in 1.5 mi Variable 2.3 mph - N/A   Overcast
8:55 AM 53.4 °F 53.4 °F 100% 30.09 in 0.5 mi ENE 4.6 mph - N/A Fog Fog
9:17 AM 55.4 °F 55.4 °F 100% 30.09 in 0.2 mi Calm Calm - N/A Fog Fog
9:57 AM 57.6 °F 57.6 °F 100% 30.10 in 0.2 mi Variable 3.5 mph - N/A Fog Fog
10:47 AM 60.8 °F 60.8 °F 100% 30.06 in 0.5 mi SSE 5.8 mph - N/A Fog Light Drizzle
10:55 AM 61.5 °F 61.5 °F 100% 30.07 in 0.5 mi SE 5.8 mph - 0.00 in Fog Light Drizzle
11:32 AM 64.4 °F 64.4 °F 100% 30.03 in 2.0 mi SE 5.8 mph - N/A   Overcast
11:40 AM 64.4 °F 64.4 °F 100% 30.02 in 3.0 mi SSE 9.2 mph - N/A   Overcast
11:55 AM 65.3 °F 65.3 °F 100% 30.02 in 3.0 mi SE 8.1 mph - 0.00 in   Overcast
12:06 PM 66.2 °F 66.2 °F 100% 30.02 in 5.0 mi SE 6.9 mph - N/A   Overcast
12:42 PM 68.0 °F 68.0 °F 100% 29.99 in 5.0 mi SSE 13.8 mph - N/A   Overcast
12:55 PM 67.6 °F 67.5 °F 99% 30.00 in 6.0 mi South 13.8 mph - 0.01 in Rain Light Rain
1:21 PM 68.0 °F 68.0 °F 100% 29.98 in 6.0 mi South 13.8 mph - N/A   Overcast
1:55 PM 67.1 °F 66.7 °F 99% 29.99 in 4.0 mi SSE 12.7 mph - 0.00 in   Overcast
2:37 PM 66.2 °F 66.2 °F 100% 29.97 in 4.0 mi South 12.7 mph - N/A   Mostly Cloudy
2:55 PM 68.0 °F 67.5 °F 98% 29.98 in 8.0 mi SSE 15.0 mph - N/A   Mostly Cloudy
3:22 PM 68.0 °F 64.4 °F 88% 29.98 in 10.0 mi SSE 12.7 mph - N/A   Mostly Cloudy
3:48 PM 68.0 °F 64.4 °F 88% 29.98 in 10.0 mi SSE 13.8 mph - N/A   Mostly Cloudy
3:55 PM 67.6 °F 63.3 °F 86% 29.99 in 10.0 mi South 16.1 mph - N/A   Mostly Cloudy
4:45 PM 66.2 °F 64.4 °F 94% 29.98 in 10.0 mi SSE 13.8 mph 17.3 mph N/A   Overcast
4:55 PM 65.3 °F 64.8 °F 98% 29.98 in 10.0 mi SSE 16.1 mph 20.7 mph N/A   Overcast
5:56 PM 64.2 °F 63.9 °F 99% 29.97 in 10.0 mi SSE 15.0 mph 21.9 mph N/A   Overcast
6:11 PM 64.4 °F 64.4 °F 100% 29.98 in 4.0 mi South 13.8 mph - N/A   Light Drizzle
6:26 PM 64.4 °F 64.4 °F 100% 29.98 in 1.2 mi South 9.2 mph - N/A   Light Drizzle
6:55 PM 63.3 °F 63.3 °F 100% 29.98 in 1.2 mi SSE 9.2 mph - N/A   Light Drizzle
7:17 PM 62.6 °F 62.6 °F 100% 29.96 in 1.2 mi SSE 13.8 mph - N/A   Light Drizzle
7:41 PM 64.4 °F 64.4 °F 100% 29.97 in 1.5 mi South 11.5 mph - N/A   Light Drizzle
7:55 PM 64.6 °F 64.6 °F 100% 29.98 in 1.5 mi South 13.8 mph - 0.00 in   Overcast
8:15 PM 64.4 °F 64.4 °F 100% 29.97 in 1.5 mi South 12.7 mph - N/A   Light Drizzle
8:46 PM 66.2 °F 66.2 °F 100% 29.97 in 1.5 mi South 10.4 mph - N/A   Light Drizzle
8:55 PM 65.5 °F 65.5 °F 100% 29.98 in 1.5 mi South 12.7 mph - 0.00 in   Light Drizzle
9:44 PM 66.2 °F 66.2 °F 100% 29.97 in 1.5 mi SSE 12.7 mph - N/A   Light Drizzle
9:57 PM 65.3 °F 65.3 °F 100% 29.97 in 1.5 mi SSE 12.7 mph - 0.00 in   Light Drizzle
10:23 PM 66.2 °F 66.2 °F 100% 29.95 in 0.5 mi SSE 12.7 mph - N/A Fog Fog
10:32 PM 66.2 °F 66.2 °F 100% 29.95 in 0.5 mi SSE 12.7 mph - N/A Fog Fog
10:46 PM 66.2 °F 66.2 °F 100% 29.95 in 0.2 mi South 13.8 mph - N/A Fog Fog
10:55 PM 65.7 °F 65.7 °F 100% 29.96 in 0.2 mi SSE 13.8 mph - N/A Fog Fog
11:55 PM 65.5 °F 65.5 °F 100% 29.94 in 0.2 mi South 15.0 mph - 0.00 in Fog Light Drizzle
11:56 PM 66.2 °F 66.2 °F 100% 29.94 in 0.5 mi South 15.0 mph - N/A Fog , Rain Light Rain